Location: Nena
(32.3271°N, 96.8558°W)
Time: 10:53:00
(UTC+00:00)

COSMOS 2455 - Pass Details

Date: 06 October 2022
Orbit: 900 x 909 km, 67.1° (Epoch: 06 December)

Event Time Altitude Azimuth Distance (km) Brightness Sun altitude
Rises 11:59:46 0° 334° (NNW) 3,537 5.6 -6.1°
Reaches altitude 10° 12:02:16 10° 333° (NNW) 2,594 5.0 -5.6°
Maximum altitude 12:08:18 83° 247° (WSW) 918 2.9 -4.3°
Drops below altitude 10° 12:14:18 10° 159° (SSE) 2,583 5.6 -3.1°
Sets 12:16:48 0° 159° (SSE) 3,521 6.3 -2.5°
